sat.trackr.live / text

‹ back to catalog

COSMOS 2390

NORAD 27464 · 2002-036A

PAYLOAD ACTIVE UNKNOWN

§ Identity

Operator
Country
CIS
Launch date
2002-07-08
Launch site
PLMSC
Launch vehicle
Mass (kg)
RCS (m²)
0.88

External: N2YO · Heavens-Above · Gunter

§ Orbital elements

Epoch: 2026-09-08T23:07:31.394784Z

Period
115.70 min
Inclination
82.4827°
Eccentricity
0.0026669
Mean motion
12.44624743 rev/d
Perigee alt
1,466.1 km
Apogee alt
1,508.0 km
Semi-major
7,865.2 km
B*
-1.6660e-4
RAAN
292.5744°
Arg perigee
76.1740°
Mean anomaly
284.2306°
Rev number
9,809

§ Raw data

COSMOS 23901 27464U 02036A   26251.96355781 -.00000014  00000+0 -16660-3 0  99922 27464  82.4827 292.5744 0026669  76.1740 284.2306 12.44624743 98091

JSON: /api/v1/satellites/27464 · /tle

For live sub-satellite position, see the globe view (requires WebGL).

§ Visibility from observer

Set your observer location to see the next 7 days of passes ≥ 10°. The values pass through the URL so the page stays shareable.

No JS? Fill the form by hand. The geolocation button needs JavaScript.